• In Czech Republic
  • List of Countries
  • For 7 days
  • Water Temperature
  • Satellite Maps
  • Weather Map
  • Weather Widgets
  • user-avatar
    Login

    Hourly Weather Algorta

    Today, 23 September, Sunday

    Time Temperature Precipitation Wind Pressure Humidity
    00:00 +21°C° 0 mm 1 mps 765 mmHg 86%
    01:00 +21°C° 0 mm 1 mps 764 mmHg 85%
    02:00 +21°C° 0 mm 1 mps 764 mmHg 84%
    03:00 +21°C° 0 mm 1 mps 764 mmHg 84%
    04:00 +21°C° 0 mm 1 mps 764 mmHg 84%
    05:00 +21°C° 0 mm 1 mps 764 mmHg 83%
    06:00 +21°C° 0 mm 1 mps 764 mmHg 83%
    07:00 +23°C° 0 mm 1 mps 764 mmHg 74%
    08:00 +26°C° 0 mm 1 mps 764 mmHg 64%
    09:00 +29°C° 0 mm 1 mps 764 mmHg 55%
    10:00 +30°C° 0 mm 2 mps 764 mmHg 51%
    11:00 +32°C° 0 mm 2 mps 764 mmHg 47%
    12:00 +34°C° 0 mm 3 mps 764 mmHg 44%
    13:00 +33°C° 0 mm 4 mps 764 mmHg 48%
    14:00 +32°C° 0 mm 4 mps 764 mmHg 52%
    15:00 +32°C° 0 mm 5 mps 764 mmHg 56%
    16:00 +28°C° 0 mm 4 mps 764 mmHg 66%
    17:00 +26°C° 0 mm 4 mps 764 mmHg 76%
    18:00 +24°C° 0 mm 3 mps 765 mmHg 86%
    19:00 +22°C° 0.2 mm 3 mps 765 mmHg 90%
    20:00 +21°C° 0.2 mm 3 mps 766 mmHg 94%
    21:00 +21°C° 0.2 mm 3 mps 766 mmHg 97%
    22:00 +21°C° 0.4 mm 3 mps 767 mmHg 97%
    23:00 +22°C° 0.4 mm 4 mps 767 mmHg 96%

    Tomorrow, 24 September, Monday

    Time Temperature Precipitation Wind Pressure Humidity
    00:00 +22°C° 0.4 mm 5 mps 767 mmHg 96%
    01:00 +22°C° 0.1 mm 5 mps 767 mmHg 96%
    02:00 +21°C° 0.1 mm 5 mps 767 mmHg 96%
    03:00 +21°C° 0.1 mm 6 mps 767 mmHg 96%
    04:00 +20°C° 0.1 mm 6 mps 768 mmHg 96%
    05:00 +20°C° 0.1 mm 6 mps 768 mmHg 96%
    06:00 +19°C° 0.1 mm 6 mps 768 mmHg 96%
    07:00 +19°C° 0 mm 5 mps 768 mmHg 96%
    08:00 +19°C° 0 mm 5 mps 768 mmHg 95%
    09:00 +17°C° 0 mm 5 mps 769 mmHg 95%
    10:00 +19°C° 0 mm 5 mps 769 mmHg 90%
    11:00 +19°C° 0 mm 4 mps 769 mmHg 85%
    12:00 +20°C° 0 mm 4 mps 768 mmHg 80%
    13:00 +20°C° 0 mm 4 mps 768 mmHg 74%
    14:00 +20°C° 0 mm 4 mps 768 mmHg 67%
    15:00 +21°C° 0 mm 4 mps 768 mmHg 61%
    16:00 +19°C° 0 mm 4 mps 768 mmHg 67%
    17:00 +17°C° 0 mm 4 mps 768 mmHg 74%
    18:00 +16°C° 0 mm 3 mps 768 mmHg 80%
    19:00 +14°C° 0 mm 3 mps 768 mmHg 85%
    20:00 +13°C° 0 mm 2 mps 768 mmHg 90%
    21:00 +12°C° 0 mm 2 mps 769 mmHg 95%
    22:00 +12°C° 0 mm 2 mps 768 mmHg 94%
    23:00 +12°C° 0 mm 2 mps 768 mmHg 94%

    Day after tomorrow, 25 September, Tuesday

    Time Temperature Precipitation Wind Pressure Humidity
    00:00 +12°C° 0 mm 2 mps 768 mmHg 94%
    01:00 +10°C° 0 mm 2 mps 768 mmHg 93%
    02:00 +10°C° 0 mm 3 mps 768 mmHg 93%
    03:00 +10°C° 0 mm 3 mps 767 mmHg 93%
    04:00 +10°C° 0 mm 3 mps 767 mmHg 93%
    05:00 +10°C° 0 mm 3 mps 767 mmHg 93%
    06:00 +10°C° 0 mm 3 mps 767 mmHg 92%
    07:00 +12°C° 0 mm 3 mps 767 mmHg 80%
    08:00 +16°C° 0 mm 3 mps 767 mmHg 67%
    09:00 +19°C° 0 mm 3 mps 767 mmHg 55%
    10:00 +20°C° 0 mm 3 mps 767 mmHg 50%
    11:00 +22°C° 0 mm 3 mps 767 mmHg 45%
    12:00 +23°C° 0 mm 4 mps 766 mmHg 41%
    13:00 +25°C° 0 mm 4 mps 766 mmHg 42%
    14:00 +25°C° 0 mm 4 mps 765 mmHg 43%
    15:00 +25°C° 0 mm 4 mps 765 mmHg 44%
    16:00 +22°C° 0 mm 3 mps 765 mmHg 52%
    17:00 +19°C° 0 mm 3 mps 765 mmHg 61%
    18:00 +17°C° 0 mm 3 mps 765 mmHg 70%
    19:00 +16°C° 0 mm 2 mps 765 mmHg 74%
    20:00 +15°C° 0 mm 2 mps 766 mmHg 79%
    21:00 +14°C° 0 mm 2 mps 766 mmHg 84%
    22:00 +14°C° 0 mm 2 mps 766 mmHg 82%
    23:00 +14°C° 0 mm 2 mps 766 mmHg 81%

    26 September, Wednesday

    Time Temperature Precipitation Wind Pressure Humidity
    00:00 +15°C° 0 mm 2 mps 765 mmHg 79%
    01:00 +15°C° 0 mm 2 mps 765 mmHg 80%
    02:00 +14°C° 0 mm 3 mps 765 mmHg 82%
    03:00 +16°C° 0 mm 3 mps 765 mmHg 84%
    04:00 +15°C° 0 mm 4 mps 765 mmHg 84%
    05:00 +15°C° 0 mm 4 mps 765 mmHg 85%
    06:00 +17°C° 0 mm 4 mps 765 mmHg 86%
    07:00 +19°C° 0 mm 4 mps 765 mmHg 79%
    08:00 +21°C° 0 mm 5 mps 765 mmHg 73%
    09:00 +23°C° 0 mm 5 mps 765 mmHg 67%
    10:00 +26°C° 0 mm 5 mps 765 mmHg 61%
    11:00 +28°C° 0 mm 5 mps 764 mmHg 56%
    12:00 +30°C° 0 mm 5 mps 764 mmHg 50%
    13:00 +30°C° 0 mm 6 mps 764 mmHg 48%
    14:00 +32°C° 0 mm 6 mps 763 mmHg 46%
    15:00 +33°C° 0 mm 6 mps 763 mmHg 44%
    16:00 +30°C° 0 mm 6 mps 763 mmHg 49%
    17:00 +28°C° 0 mm 5 mps 763 mmHg 54%
    18:00 +26°C° 0 mm 5 mps 763 mmHg 59%
    19:00 +25°C° 0 mm 5 mps 763 mmHg 63%
    20:00 +23°C° 0 mm 4 mps 764 mmHg 66%
    21:00 +22°C° 0 mm 4 mps 764 mmHg 70%
    22:00 +22°C° 0 mm 4 mps 764 mmHg 72%
    23:00 +21°C° 0 mm 4 mps 764 mmHg 74%

    27 September, Thursday

    Time Temperature Precipitation Wind Pressure Humidity
    00:00 +21°C° 0 mm 4 mps 764 mmHg 76%
    01:00 +21°C° 0 mm 4 mps 764 mmHg 79%
    02:00 +21°C° 0 mm 4 mps 764 mmHg 81%
    03:00 +20°C° 0 mm 4 mps 764 mmHg 84%
    04:00 +20°C° 0 mm 4 mps 764 mmHg 85%
    05:00 +20°C° 0 mm 4 mps 764 mmHg 87%
    06:00 +20°C° 0 mm 4 mps 764 mmHg 89%
    07:00 +22°C° 0 mm 4 mps 764 mmHg 82%
    08:00 +23°C° 0 mm 4 mps 764 mmHg 74%
    09:00 +26°C° 0 mm 4 mps 764 mmHg 67%
    10:00 +28°C° 0 mm 3 mps 764 mmHg 60%
    11:00 +30°C° 0 mm 3 mps 764 mmHg 54%
    12:00 +33°C° 0 mm 3 mps 764 mmHg 47%
    13:00 +33°C° 0 mm 3 mps 763 mmHg 44%
    14:00 +34°C° 0 mm 2 mps 763 mmHg 42%
    15:00 +34°C° 0 mm 2 mps 762 mmHg 40%
    16:00 +31°C° 0 mm 2 mps 762 mmHg 48%
    17:00 +29°C° 0 mm 2 mps 762 mmHg 56%
    18:00 +27°C° 0 mm 1 mps 762 mmHg 64%
    19:00 +26°C° 0.2 mm 1 mps 763 mmHg 70%
    20:00 +24°C° 0.2 mm 1 mps 763 mmHg 76%
    21:00 +23°C° 0.2 mm 2 mps 763 mmHg 82%
    22:00 +23°C° 0.2 mm 2 mps 763 mmHg 83%
    23:00 +21°C° 0.2 mm 2 mps 763 mmHg 85%

    28 September, Friday

    Time Temperature Precipitation Wind Pressure Humidity
    00:00 +21°C° 0.2 mm 2 mps 763 mmHg 86%
    01:00 +22°C° 0.1 mm 1 mps 763 mmHg 87%
    02:00 +22°C° 0.1 mm 1 mps 762 mmHg 87%
    03:00 +21°C° 0.1 mm 1 mps 762 mmHg 88%
    04:00 +21°C° 0 mm 1 mps 762 mmHg 89%
    05:00 +21°C° 0 mm 1 mps 762 mmHg 89%
    06:00 +21°C° 0 mm 1 mps 762 mmHg 90%
    07:00 +23°C° 0 mm 1 mps 762 mmHg 83%
    08:00 +25°C° 0 mm 1 mps 762 mmHg 75%
    09:00 +25°C° 0 mm 0 mps 762 mmHg 68%
    10:00 +29°C° 0.1 mm 1 mps 762 mmHg 61%
    11:00 +31°C° 0.1 mm 2 mps 762 mmHg 54%
    12:00 +34°C° 0.1 mm 2 mps 761 mmHg 46%
    13:00 +32°C° 0.3 mm 2 mps 761 mmHg 50%
    14:00 +31°C° 0.3 mm 3 mps 761 mmHg 53%
    15:00 +30°C° 0.3 mm 3 mps 760 mmHg 56%
    16:00 +28°C° 0.2 mm 3 mps 760 mmHg 66%
    17:00 +26°C° 0.2 mm 3 mps 760 mmHg 75%
    18:00 +22°C° 0.2 mm 3 mps 760 mmHg 84%
    19:00 +21°C° 0 mm 3 mps 760 mmHg 88%
    20:00 +20°C° 0 mm 3 mps 761 mmHg 93%
    21:00 +19°C° 0 mm 3 mps 761 mmHg 97%
    22:00 +19°C° 0.1 mm 3 mps 760 mmHg 97%
    23:00 +19°C° 0.1 mm 4 mps 760 mmHg 97%
    Show more